Location: Kaiser
(34.0939°N, 117.4889°W)
Time: 03:09:06
(UTC+00:00)

Cosmos 1484 Rocket - Pass Details

Date: 29 October 2020
Orbit: 504 x 560 km, 97.4° (Epoch: 26 November)

Event Time Altitude Azimuth Distance (km) Brightness Sun altitude
Rises 13:16:57 0° 352° (N) 2,671 6.1 -11.0°
Reaches altitude 10° 13:19:38 10° 332° (NNW) 1,766 5.0 -10.5°
Maximum altitude 13:22:08 17° 290° (WNW) 1,362 4.2 -10.0°
Drops below altitude 10° 13:24:37 10° 249° (WSW) 1,738 4.9 -9.5°
Sets 13:27:14 0° 228° (SW) 2,611 5.9 -8.9°
